User: anonymous   Login
Location: Unspecified
(0.0000°N, 0.0000°E)
Time: 22:23:50
(UTC+02:00)
Language:

Meteor PRIRODA - Orbit

View from above orbital plane
View from above orbital plane
View from above satellite
View from above satellite

Ground track
Ground track

The orbit data is extracted from the following two-line orbital elements,

1 12585U 81065A   18111.99188930  .00000846  00000-0  41359-4 0  9994
2 12585  97.4691  92.6705 0015802  45.4719 314.7804 15.20863826  9203
Epoch (UTC): 21 April 2018 23:48:19
Eccentricity: 0.0015802
inclination: 97.4691°
perigee height: 492 km
apogee height: 514 km
right ascension of ascending node: 92.6705°
argument of perigee: 45.4719°
revolutions per day: 15.20863826
mean anomaly at epoch: 314.7804°
orbit number at epoch: 920

The dashed part of the orbit path shows where the satellite is in the earth's shadow,  

DLR